Grand Marais, MN

8:53 AM CDT on April 24, 2018 (GMT -0500)
Grand Marais

Weather History for KGNA - October, 2012

Change the Weather History Date:

Thursday, October 11, 2012

  Actual Average (KCKC) Record (KCKC)
Temperature  
Mean Temperature 38 °F -  
Max Temperature 50 °F 49 °F 80 °F (2015)
Min Temperature 28 °F 33 °F 24 °F (2006)
Degree Days  
Heating Degree Days 27    
Moisture  
Dew Point 29 °F    
Average Humidity 70    
Maximum Humidity 93    
Minimum Humidity 42    
Precipitation  
Precipitation 0.03 in - - ()
Sea Level Pressure  
Sea Level Pressure 30.06 in    
Wind  
Wind Speed 5 mph (WNW)    
Max Wind Speed 13 mph    
Max Gust Speed 25 mph    
Averages and records for this station are not official NWS values.
T = Trace of Precipitation, MM = Missing Value Source: NWS Daily Summary

Daily Weather History Graph

Daily Weather History Graph

Search for Another Location

Airport or City:

Astronomy

Oct. 11, 2012 Rise Set
Actual Time 7:15 AM CDT 6:19 PM CDT
Civil Twilight 6:44 AM CDT 6:50 PM CDT
Nautical Twilight 6:08 AM CDT 7:26 PM CDT
Astronomical Twilight 5:32 AM CDT 8:02 PM CDT
Moon 2:36 AM CDT (10/11) 4:10 PM CDT (10/11)
Length of Visible Light 12h 06m
Length of Day
11h 04m
Waning Crescent, 18% of the Moon is Illuminated
Oct 11
Waning Crescent
Oct 15
New
Oct 21
First Quarter
Oct 29
Full
Nov 6
Last Quarter

Hourly Weather History & Observations

Time (CDT) Temp. Windchill Dew Point Humidity Pressure Visibility Wind Dir Wind Speed Gust Speed Precip Events Conditions
12:56 AM 39.0 °F 36.8 °F 36.0 °F 89% 29.92 in - West 3.5 mph - 0.01 in   Unknown
1:56 AM 37.9 °F 35.5 °F 35.1 °F 89% 29.91 in - West 3.5 mph - 0.01 in   Unknown
2:56 AM 37.9 °F 35.5 °F 35.1 °F 89% 29.89 in - West 3.5 mph - N/A   Unknown
3:56 AM 37.0 °F - 35.1 °F 93% 29.89 in - Calm Calm - N/A   Unknown
4:56 AM 37.0 °F 34.5 °F 34.0 °F 89% 29.88 in - Variable 3.5 mph - N/A   Unknown
5:56 AM 37.0 °F 34.5 °F 34.0 °F 89% 29.89 in - WSW 3.5 mph - N/A   Unknown
6:56 AM 36.0 °F 32.1 °F 32.0 °F 86% 29.91 in - WSW 4.6 mph - N/A   Unknown
7:56 AM 37.9 °F 34.4 °F 32.0 °F 79% 29.91 in - Variable 4.6 mph - N/A   Unknown
8:56 AM 42.1 °F 36.1 °F 30.9 °F 65% 29.94 in - NW 10.4 mph 24.2 mph N/A   Unknown
9:56 AM 44.1 °F 40.8 °F 30.0 °F 58% 29.96 in - Variable 5.8 mph - N/A   Unknown
10:56 AM 44.1 °F 37.7 °F 27.0 °F 51% 29.99 in - NW 12.7 mph 24.2 mph N/A   Unknown
11:56 AM 46.0 °F 41.0 °F 28.0 °F 50% 30.02 in - WNW 10.4 mph 20.7 mph N/A   Unknown
12:56 PM 48.0 °F - 28.0 °F 46% 30.03 in - NW 9.2 mph 23.0 mph N/A   Unknown
1:56 PM 42.1 °F 36.6 °F 34.0 °F 73% 30.06 in - NNW 9.2 mph 16.1 mph 0.01 in   Unknown
2:56 PM 44.1 °F 37.7 °F 30.0 °F 58% 30.10 in - NNW 12.7 mph 21.9 mph N/A   Unknown
3:56 PM 45.0 °F 41.8 °F 23.0 °F 42% 30.13 in - Variable 5.8 mph 25.3 mph N/A   Unknown
4:56 PM 44.1 °F 41.5 °F 24.1 °F 45% 30.15 in - Variable 4.6 mph - N/A   Unknown
5:56 PM 42.1 °F 39.2 °F 23.0 °F 47% 30.19 in - Variable 4.6 mph - N/A   Unknown
6:56 PM 37.9 °F - 23.0 °F 55% 30.23 in - Calm Calm - N/A   Unknown
7:56 PM 32.0 °F - 23.0 °F 69% 30.26 in - Calm Calm - N/A   Unknown
8:56 PM 30.0 °F 26.5 °F 23.0 °F 75% 30.27 in - NW 3.5 mph - N/A   Unknown
9:56 PM 30.0 °F 25.2 °F 23.0 °F 75% 30.29 in - NW 4.6 mph - N/A   Unknown
10:56 PM 28.9 °F - 23.0 °F 78% 30.31 in - Calm Calm - N/A   Unknown
11:56 PM 32.0 °F 28.7 °F 26.1 °F 79% 30.32 in - WNW 3.5 mph - N/A   Unknown